When you browse on this site, cookies collect data to enhance your experience and personalize the content and advertising you see.
Visit our Privacy Policy to learn more. By continuing to use the site, you agree to this use of cookies and data.
  • Em Portugal
  • Lista de países
  • Para 7 dias
  • Temperatura da água
  • Mapas de satélite
  • Mapa do tempo
  • Widgets de tempo
  • user-avatar
    Iniciar Sessão

    Previsão horária em Tirana

    Hoje, 25 Março, Segunda-feira

    Tempo Temperatura Precipitação Vento Pressão Humidade
    00:00 +13°C° 0 mm 1 m/s 755 mmHg 66%
    01:00 +13°C° 0 mm 1 m/s 754 mmHg 67%
    02:00 +13°C° 0 mm 1 m/s 754 mmHg 67%
    03:00 +12°C° 0 mm 1 m/s 754 mmHg 67%
    04:00 +12°C° 0 mm 1 m/s 754 mmHg 67%
    05:00 +13°C° 0 mm 1 m/s 754 mmHg 65%
    06:00 +13°C° 0 mm 2 m/s 754 mmHg 63%
    07:00 +13°C° 0 mm 3 m/s 753 mmHg 59%
    08:00 +16°C° 0 mm 2 m/s 753 mmHg 53%
    09:00 +18°C° 0 mm 2 m/s 753 mmHg 46%
    10:00 +19°C° 0 mm 2 m/s 752 mmHg 39%
    11:00 +20°C° 0 mm 2 m/s 752 mmHg 38%
    12:00 +20°C° 0 mm 3 m/s 752 mmHg 37%
    13:00 +21°C° 0 mm 3 m/s 751 mmHg 37%
    14:00 +21°C° 0 mm 3 m/s 751 mmHg 40%
    15:00 +20°C° 0 mm 3 m/s 750 mmHg 43%
    16:00 +20°C° 0 mm 3 m/s 750 mmHg 47%
    17:00 +18°C° 0 mm 2 m/s 750 mmHg 54%
    18:00 +16°C° 0 mm 2 m/s 750 mmHg 62%
    19:00 +14°C° 0 mm 2 m/s 749 mmHg 69%
    20:00 +14°C° 0 mm 2 m/s 749 mmHg 69%
    21:00 +13°C° 0 mm 3 m/s 749 mmHg 68%
    22:00 +12°C° 0 mm 3 m/s 749 mmHg 67%
    23:00 +12°C° 0 mm 3 m/s 749 mmHg 66%

    Amanhã, 26 Março, Terça-feira

    Tempo Temperatura Precipitação Vento Pressão Humidade
    00:00 +12°C° 0 mm 3 m/s 749 mmHg 65%
    01:00 +13°C° 0 mm 2 m/s 749 mmHg 64%
    02:00 +12°C° 0 mm 2 m/s 749 mmHg 63%
    03:00 +12°C° 0 mm 2 m/s 749 mmHg 63%
    04:00 +12°C° 0 mm 2 m/s 749 mmHg 62%
    05:00 +13°C° 0 mm 2 m/s 749 mmHg 62%
    06:00 +13°C° 0 mm 2 m/s 750 mmHg 61%
    07:00 +14°C° 0 mm 2 m/s 750 mmHg 61%
    08:00 +16°C° 0 mm 2 m/s 750 mmHg 55%
    09:00 +18°C° 0 mm 2 m/s 750 mmHg 49%
    10:00 +20°C° 0 mm 2 m/s 750 mmHg 43%
    11:00 +20°C° 0 mm 3 m/s 750 mmHg 42%
    12:00 +21°C° 0 mm 4 m/s 750 mmHg 41%
    13:00 +21°C° 0 mm 5 m/s 751 mmHg 40%
    14:00 +21°C° 0 mm 5 m/s 751 mmHg 41%
    15:00 +20°C° 0 mm 5 m/s 751 mmHg 42%
    16:00 +20°C° 0 mm 5 m/s 751 mmHg 43%
    17:00 +18°C° 0.1 mm 4 m/s 751 mmHg 49%
    18:00 +15°C° 0.1 mm 4 m/s 752 mmHg 55%
    19:00 +14°C° 0.1 mm 3 m/s 752 mmHg 61%
    20:00 +13°C° 0.1 mm 4 m/s 753 mmHg 61%
    21:00 +13°C° 0.1 mm 4 m/s 754 mmHg 61%
    22:00 +12°C° 0.1 mm 4 m/s 754 mmHg 61%
    23:00 +12°C° 0.1 mm 4 m/s 755 mmHg 59%

    Depois de amanhã, 27 Março, Quarta-feira

    Tempo Temperatura Precipitação Vento Pressão Humidade
    00:00 +11°C° 0.1 mm 4 m/s 755 mmHg 57%
    01:00 +11°C° 0.1 mm 4 m/s 755 mmHg 56%
    02:00 +10°C° 0.1 mm 4 m/s 755 mmHg 56%
    03:00 +10°C° 0.1 mm 4 m/s 755 mmHg 56%
    04:00 +8°C° 0.1 mm 4 m/s 755 mmHg 56%
    05:00 +10°C° 0.1 mm 4 m/s 755 mmHg 55%
    06:00 +10°C° 0.1 mm 4 m/s 756 mmHg 54%
    07:00 +11°C° 0.1 mm 4 m/s 756 mmHg 52%
    08:00 +13°C° 0 mm 4 m/s 756 mmHg 46%
    09:00 +15°C° 0 mm 4 m/s 756 mmHg 41%
    10:00 +18°C° 0 mm 3 m/s 756 mmHg 35%
    11:00 +19°C° 0 mm 3 m/s 756 mmHg 34%
    12:00 +20°C° 0 mm 3 m/s 756 mmHg 33%
    13:00 +20°C° 0 mm 2 m/s 756 mmHg 33%
    14:00 +19°C° 0.3 mm 2 m/s 756 mmHg 39%
    15:00 +18°C° 0.3 mm 2 m/s 756 mmHg 45%
    16:00 +17°C° 0.3 mm 3 m/s 756 mmHg 51%
    17:00 +16°C° 0.4 mm 2 m/s 756 mmHg 58%
    18:00 +15°C° 0.4 mm 2 m/s 756 mmHg 64%
    19:00 +13°C° 0.4 mm 2 m/s 756 mmHg 71%
    20:00 +13°C° 0.1 mm 2 m/s 757 mmHg 69%
    21:00 +13°C° 0.1 mm 2 m/s 757 mmHg 66%
    22:00 +13°C° 0.1 mm 2 m/s 757 mmHg 64%
    23:00 +12°C° 0 mm 2 m/s 757 mmHg 60%

    28 Março, Quinta-feira

    Tempo Temperatura Precipitação Vento Pressão Humidade
    00:00 +11°C° 0 mm 3 m/s 757 mmHg 57%
    01:00 +11°C° 0 mm 4 m/s 757 mmHg 53%
    02:00 +10°C° 0 mm 4 m/s 757 mmHg 52%
    03:00 +9°C° 0 mm 5 m/s 757 mmHg 50%
    04:00 +9°C° 0 mm 5 m/s 757 mmHg 48%
    05:00 +9°C° 0 mm 5 m/s 757 mmHg 48%
    06:00 +9°C° 0 mm 5 m/s 757 mmHg 48%
    07:00 +9°C° 0 mm 5 m/s 757 mmHg 48%
    08:00 +12°C° 0 mm 5 m/s 758 mmHg 43%
    09:00 +14°C° 0 mm 5 m/s 758 mmHg 38%
    10:00 +15°C° 0 mm 5 m/s 758 mmHg 33%
    11:00 +17°C° 0 mm 4 m/s 758 mmHg 32%
    12:00 +18°C° 0 mm 4 m/s 758 mmHg 31%
    13:00 +19°C° 0 mm 4 m/s 757 mmHg 29%
    14:00 +19°C° 0 mm 4 m/s 757 mmHg 30%
    15:00 +19°C° 0 mm 4 m/s 757 mmHg 31%
    16:00 +19°C° 0 mm 4 m/s 757 mmHg 32%
    17:00 +17°C° 0 mm 4 m/s 757 mmHg 37%
    18:00 +14°C° 0 mm 4 m/s 758 mmHg 41%
    19:00 +12°C° 0 mm 4 m/s 758 mmHg 45%
    20:00 +11°C° 0 mm 4 m/s 758 mmHg 47%
    21:00 +11°C° 0 mm 4 m/s 759 mmHg 48%
    22:00 +10°C° 0 mm 4 m/s 759 mmHg 49%
    23:00 +10°C° 0 mm 4 m/s 759 mmHg 51%

    29 Março, Sexta-feira

    Tempo Temperatura Precipitação Vento Pressão Humidade
    00:00 +8°C° 0 mm 4 m/s 760 mmHg 52%
    01:00 +8°C° 0 mm 5 m/s 760 mmHg 54%
    02:00 +7°C° 0 mm 5 m/s 760 mmHg 56%
    03:00 +7°C° 0 mm 5 m/s 760 mmHg 58%
    04:00 +7°C° 0 mm 5 m/s 760 mmHg 60%
    05:00 +7°C° 0 mm 5 m/s 760 mmHg 58%
    06:00 +8°C° 0 mm 5 m/s 760 mmHg 57%
    07:00 +9°C° 0 mm 5 m/s 760 mmHg 56%
    08:00 +12°C° 0 mm 5 m/s 760 mmHg 47%
    09:00 +14°C° 0 mm 5 m/s 760 mmHg 39%
    10:00 +15°C° 0 mm 5 m/s 761 mmHg 30%
    11:00 +16°C° 0 mm 5 m/s 760 mmHg 28%
    12:00 +17°C° 0 mm 5 m/s 760 mmHg 26%
    13:00 +19°C° 0 mm 5 m/s 760 mmHg 24%
    14:00 +19°C° 0 mm 5 m/s 760 mmHg 25%
    15:00 +19°C° 0 mm 6 m/s 759 mmHg 26%
    16:00 +19°C° 0 mm 6 m/s 759 mmHg 27%
    17:00 +16°C° 0 mm 7 m/s 759 mmHg 32%
    18:00 +14°C° 0 mm 7 m/s 760 mmHg 37%
    19:00 +11°C° 0 mm 8 m/s 760 mmHg 43%
    20:00 +11°C° 0 mm 7 m/s 760 mmHg 43%
    21:00 +10°C° 0 mm 7 m/s 761 mmHg 43%
    22:00 +9°C° 0 mm 6 m/s 761 mmHg 43%
    23:00 +9°C° 0 mm 6 m/s 761 mmHg 45%

    30 Março, Sábado

    Tempo Temperatura Precipitação Vento Pressão Humidade
    00:00 +8°C° 0 mm 5 m/s 761 mmHg 46%
    01:00 +8°C° 0 mm 5 m/s 761 mmHg 48%
    02:00 +8°C° 0 mm 5 m/s 761 mmHg 49%
    03:00 +7°C° 0 mm 4 m/s 761 mmHg 50%
    04:00 +7°C° 0 mm 4 m/s 761 mmHg 52%
    05:00 +8°C° 0 mm 4 m/s 761 mmHg 52%
    06:00 +8°C° 0 mm 4 m/s 761 mmHg 53%
    07:00 +10°C° 0 mm 4 m/s 761 mmHg 53%
    08:00 +12°C° 0 mm 4 m/s 761 mmHg 47%
    09:00 +15°C° 0 mm 4 m/s 761 mmHg 41%
    10:00 +18°C° 0 mm 4 m/s 760 mmHg 35%
    11:00 +19°C° 0 mm 5 m/s 760 mmHg 33%
    12:00 +20°C° 0 mm 6 m/s 759 mmHg 32%
    13:00 +21°C° 0 mm 7 m/s 759 mmHg 31%
    14:00 +20°C° 0 mm 7 m/s 759 mmHg 35%
    15:00 +18°C° 0 mm 8 m/s 758 mmHg 39%
    16:00 +18°C° 0 mm 9 m/s 758 mmHg 43%
    17:00 +16°C° 0 mm 8 m/s 758 mmHg 50%
    18:00 +14°C° 0 mm 7 m/s 758 mmHg 57%
    19:00 +12°C° 0 mm 7 m/s 758 mmHg 64%
    20:00 +11°C° 0 mm 6 m/s 758 mmHg 63%
    21:00 +12°C° 0 mm 5 m/s 759 mmHg 61%
    22:00 +11°C° 0 mm 4 m/s 759 mmHg 60%
    23:00 +11°C° 0 mm 3 m/s 758 mmHg 58%
    Mostrar mais